Location: Praha
(50.0830°N, 14.4670°E)
Time: 22:08:08
(UTC+01:00)

ISS - Pass Details

Date: 03 November 2019
Orbit: 412 x 421 km, 51.6° (Epoch: 15 November)

Event Time Altitude Azimuth Distance (km) Brightness Sun altitude
Exits shadow 05:45:29 19° 285° (WNW) 1,088 -2.3 -11.5°
Maximum altitude 05:47:47 67° 6° (N) 461 -3.6 -11.1°
Drops below altitude 10° 05:51:09 10° 89° (E) 1,504 0.5 -10.6°
Sets 05:53:16 0° 92° (E) 2,367 2.1 -10.2°
